When you browse on this site, cookies collect data to enhance your experience and personalize the content and advertising you see.
Visit our Privacy Policy to learn more. By continuing to use the site, you agree to this use of cookies and data.
  • In United Kingdom
  • List of Countries
  • For 7 days
  • Water Temperature
  • Satellite Maps
  • Weather Map
  • Weather Widgets
  • user-avatar
    Login

    Hourly Weather Den Helder

    Today, 25 April, Thursday

    Time Temperature Precipitation Wind Pressure Humidity
    00:00 +10°C° 0 mm 6 mps 752 mmHg 89%
    01:00 +9°C° 0 mm 6 mps 751 mmHg 89%
    02:00 +9°C° 0 mm 6 mps 751 mmHg 89%
    03:00 +8°C° 0 mm 6 mps 751 mmHg 89%
    04:00 +8°C° 0 mm 6 mps 751 mmHg 87%
    05:00 +8°C° 0 mm 7 mps 752 mmHg 86%
    06:00 +9°C° 0 mm 6 mps 752 mmHg 85%
    07:00 +10°C° 0 mm 7 mps 752 mmHg 80%
    08:00 +11°C° 0 mm 7 mps 752 mmHg 76%
    09:00 +14°C° 0 mm 7 mps 752 mmHg 72%
    10:00 +15°C° 0 mm 7 mps 752 mmHg 67%
    11:00 +16°C° 0 mm 6 mps 753 mmHg 63%
    12:00 +19°C° 0 mm 6 mps 753 mmHg 58%
    13:00 +16°C° 0.8 mm 6 mps 753 mmHg 68%
    14:00 +14°C° 0.8 mm 6 mps 753 mmHg 78%
    15:00 +13°C° 0.8 mm 6 mps 753 mmHg 87%
    16:00 +12°C° 0.3 mm 5 mps 753 mmHg 87%
    17:00 +12°C° 0.3 mm 5 mps 754 mmHg 87%
    18:00 +12°C° 0.3 mm 5 mps 754 mmHg 87%
    19:00 +10°C° 1.1 mm 5 mps 754 mmHg 90%
    20:00 +10°C° 1.1 mm 5 mps 754 mmHg 92%
    21:00 +10°C° 1.1 mm 5 mps 755 mmHg 95%
    22:00 +9°C° 0.3 mm 5 mps 755 mmHg 95%
    23:00 +9°C° 0.3 mm 5 mps 755 mmHg 95%

    Tomorrow, 26 April, Friday

    Time Temperature Precipitation Wind Pressure Humidity
    00:00 +9°C° 0.3 mm 5 mps 756 mmHg 96%
    01:00 +9°C° 0.2 mm 5 mps 756 mmHg 95%
    02:00 +10°C° 0.2 mm 4 mps 756 mmHg 95%
    03:00 +10°C° 0.2 mm 4 mps 756 mmHg 95%
    04:00 +10°C° 0 mm 4 mps 756 mmHg 93%
    05:00 +10°C° 0 mm 4 mps 756 mmHg 90%
    06:00 +10°C° 0 mm 4 mps 756 mmHg 88%
    07:00 +11°C° 0 mm 4 mps 757 mmHg 84%
    08:00 +12°C° 0 mm 4 mps 757 mmHg 80%
    09:00 +13°C° 0 mm 4 mps 758 mmHg 76%
    10:00 +13°C° 0 mm 5 mps 758 mmHg 73%
    11:00 +13°C° 0 mm 5 mps 758 mmHg 71%
    12:00 +14°C° 0 mm 6 mps 758 mmHg 68%
    13:00 +13°C° 0 mm 6 mps 758 mmHg 67%
    14:00 +13°C° 0 mm 6 mps 758 mmHg 65%
    15:00 +13°C° 0 mm 5 mps 758 mmHg 64%
    16:00 +13°C° 0 mm 5 mps 758 mmHg 68%
    17:00 +12°C° 0 mm 4 mps 758 mmHg 71%
    18:00 +11°C° 0 mm 4 mps 758 mmHg 75%
    19:00 +11°C° 0 mm 4 mps 758 mmHg 77%
    20:00 +9°C° 0 mm 5 mps 758 mmHg 79%
    21:00 +8°C° 0 mm 6 mps 758 mmHg 82%
    22:00 +8°C° 0 mm 6 mps 758 mmHg 82%
    23:00 +8°C° 0 mm 7 mps 758 mmHg 82%

    Day after tomorrow, 27 April, Saturday

    Time Temperature Precipitation Wind Pressure Humidity
    00:00 +7°C° 0 mm 8 mps 757 mmHg 83%
    01:00 +7°C° 0 mm 8 mps 757 mmHg 82%
    02:00 +7°C° 0 mm 8 mps 757 mmHg 82%
    03:00 +6°C° 0 mm 8 mps 756 mmHg 82%
    04:00 +6°C° 1 mm 8 mps 756 mmHg 85%
    05:00 +6°C° 1 mm 9 mps 756 mmHg 88%
    06:00 +6°C° 1 mm 9 mps 755 mmHg 91%
    07:00 +7°C° 0.1 mm 9 mps 755 mmHg 83%
    08:00 +8°C° 0.1 mm 9 mps 755 mmHg 75%
    09:00 +10°C° 0.1 mm 9 mps 755 mmHg 68%
    10:00 +9°C° 0.1 mm 10 mps 755 mmHg 66%
    11:00 +9°C° 0.1 mm 10 mps 755 mmHg 65%
    12:00 +9°C° 0.1 mm 11 mps 754 mmHg 64%
    13:00 +9°C° 0.1 mm 11 mps 754 mmHg 65%
    14:00 +8°C° 0.1 mm 11 mps 754 mmHg 67%
    15:00 +8°C° 0.1 mm 12 mps 754 mmHg 68%
    16:00 +8°C° 0.2 mm 11 mps 754 mmHg 71%
    17:00 +8°C° 0.2 mm 9 mps 754 mmHg 75%
    18:00 +7°C° 0.2 mm 8 mps 754 mmHg 79%
    19:00 +7°C° 0.1 mm 8 mps 754 mmHg 80%
    20:00 +7°C° 0.1 mm 8 mps 755 mmHg 82%
    21:00 +6°C° 0.1 mm 8 mps 755 mmHg 83%
    22:00 +6°C° 0.1 mm 7 mps 755 mmHg 84%
    23:00 +6°C° 0.1 mm 7 mps 755 mmHg 86%

    28 April, Sunday

    Time Temperature Precipitation Wind Pressure Humidity
    00:00 +6°C° 0.1 mm 7 mps 756 mmHg 87%
    01:00 +7°C° 0.1 mm 6 mps 756 mmHg 88%
    02:00 +7°C° 0.1 mm 6 mps 756 mmHg 88%
    03:00 +7°C° 0.1 mm 6 mps 757 mmHg 89%
    04:00 +7°C° 0 mm 6 mps 758 mmHg 89%
    05:00 +7°C° 0 mm 6 mps 758 mmHg 90%
    06:00 +5°C° 0 mm 6 mps 759 mmHg 90%
    07:00 +7°C° 0 mm 6 mps 760 mmHg 87%
    08:00 +8°C° 0 mm 6 mps 760 mmHg 84%
    09:00 +8°C° 0 mm 6 mps 761 mmHg 81%
    10:00 +9°C° 0 mm 6 mps 762 mmHg 75%
    11:00 +10°C° 0 mm 6 mps 762 mmHg 70%
    12:00 +12°C° 0 mm 5 mps 763 mmHg 65%
    13:00 +11°C° 0 mm 6 mps 763 mmHg 68%
    14:00 +10°C° 0 mm 7 mps 763 mmHg 70%
    15:00 +10°C° 0 mm 8 mps 764 mmHg 72%
    16:00 +9°C° 0 mm 8 mps 764 mmHg 74%
    17:00 +9°C° 0 mm 7 mps 764 mmHg 76%
    18:00 +8°C° 0 mm 7 mps 765 mmHg 78%
    19:00 +8°C° 0 mm 7 mps 765 mmHg 81%
    20:00 +6°C° 0 mm 7 mps 766 mmHg 84%
    21:00 +5°C° 0 mm 6 mps 766 mmHg 86%
    22:00 +5°C° 0 mm 6 mps 766 mmHg 87%
    23:00 +5°C° 0 mm 6 mps 766 mmHg 88%

    29 April, Monday

    Time Temperature Precipitation Wind Pressure Humidity
    00:00 +6°C° 0 mm 5 mps 767 mmHg 89%
    01:00 +5°C° 0 mm 5 mps 767 mmHg 91%
    02:00 +5°C° 0 mm 5 mps 767 mmHg 92%
    03:00 +5°C° 0 mm 4 mps 767 mmHg 94%
    04:00 +6°C° 0 mm 4 mps 767 mmHg 91%
    05:00 +6°C° 0 mm 4 mps 767 mmHg 89%
    06:00 +8°C° 0 mm 3 mps 767 mmHg 87%
    07:00 +8°C° 0 mm 4 mps 768 mmHg 82%
    08:00 +11°C° 0 mm 4 mps 768 mmHg 76%
    09:00 +12°C° 0 mm 4 mps 768 mmHg 71%
    10:00 +12°C° 0 mm 4 mps 768 mmHg 71%
    11:00 +12°C° 0 mm 4 mps 768 mmHg 71%
    12:00 +13°C° 0 mm 5 mps 768 mmHg 71%
    13:00 +12°C° 0 mm 5 mps 768 mmHg 73%
    14:00 +12°C° 0 mm 5 mps 768 mmHg 75%
    15:00 +10°C° 0 mm 5 mps 768 mmHg 77%
    16:00 +10°C° 0 mm 5 mps 768 mmHg 81%
    17:00 +9°C° 0 mm 5 mps 768 mmHg 84%
    18:00 +9°C° 0 mm 5 mps 768 mmHg 88%
    19:00 +8°C° 0 mm 5 mps 768 mmHg 89%
    20:00 +7°C° 0 mm 5 mps 768 mmHg 91%
    21:00 +7°C° 0 mm 5 mps 768 mmHg 92%
    22:00 +7°C° 0 mm 5 mps 768 mmHg 93%
    23:00 +5°C° 0 mm 6 mps 768 mmHg 94%

    30 April, Tuesday

    Time Temperature Precipitation Wind Pressure Humidity
    00:00 +5°C° 0 mm 6 mps 768 mmHg 95%
    01:00 +5°C° 0 mm 6 mps 768 mmHg 88%
    02:00 +5°C° 0 mm 5 mps 767 mmHg 82%
    03:00 +5°C° 0 mm 5 mps 767 mmHg 76%
    04:00 +5°C° 0 mm 5 mps 767 mmHg 73%
    05:00 +5°C° 0 mm 5 mps 767 mmHg 69%
    06:00 +6°C° 0 mm 5 mps 767 mmHg 66%
    07:00 +7°C° 0 mm 5 mps 767 mmHg 63%
    08:00 +9°C° 0 mm 5 mps 767 mmHg 60%
    09:00 +10°C° 0 mm 5 mps 768 mmHg 58%
    10:00 +12°C° 0 mm 5 mps 767 mmHg 57%
    11:00 +13°C° 0 mm 6 mps 767 mmHg 56%
    12:00 +13°C° 0 mm 6 mps 767 mmHg 55%
    13:00 +12°C° 0 mm 7 mps 767 mmHg 55%
    14:00 +12°C° 0 mm 7 mps 767 mmHg 54%
    15:00 +12°C° 0 mm 8 mps 766 mmHg 53%
    16:00 +11°C° 0 mm 7 mps 766 mmHg 57%
    17:00 +10°C° 0 mm 7 mps 766 mmHg 60%
    18:00 +9°C° 0 mm 7 mps 766 mmHg 63%
    19:00 +8°C° 0 mm 7 mps 766 mmHg 66%
    20:00 +6°C° 0 mm 7 mps 766 mmHg 69%
    21:00 +5°C° 0 mm 7 mps 767 mmHg 71%
    22:00 +5°C° 0 mm 6 mps 766 mmHg 73%
    23:00 +5°C° 0 mm 6 mps 766 mmHg 75%
    Show more